Owensboro, KY

4:03 PM CDT on April 25, 2018 (GMT -0500)
Owensboro-Daviess County

Weather History for KOWB - January, 2013

Change the Weather History Date:

Saturday, January 12, 2013

  Actual Average Record
Temperature  
Mean Temperature 61 °F -  
Max Temperature 68 °F 38 °F 69 °F (1960)
Min Temperature 54 °F 20 °F -13 °F (1977)
Degree Days  
Heating Degree Days 4    
Growing Degree Days 11 (Base 50)    
Moisture  
Dew Point 61 °F    
Average Humidity 96    
Maximum Humidity 100    
Minimum Humidity 81    
Precipitation  
Precipitation 0.09 in - - ()
Sea Level Pressure  
Sea Level Pressure 29.90 in    
Wind  
Wind Speed 8 mph (SSE)    
Max Wind Speed 25 mph    
Max Gust Speed 23 mph    
Visibility 8 miles    
Events Rain    
Averages and records for this station are not official NWS values.
T = Trace of Precipitation, MM = Missing Value Source: NWS Daily Summary

Daily Weather History Graph

Daily Weather History Graph

Search for Another Location

Airport or City:

Astronomy

Jan. 12, 2013 Rise Set
Actual Time 7:03 AM CST 4:51 PM CST
Civil Twilight 6:34 AM CST 5:19 PM CST
Nautical Twilight 6:02 AM CST 5:52 PM CST
Astronomical Twilight 5:30 AM CST 6:23 PM CST
Moon 7:23 AM CST (1/12) 6:17 PM CST (1/12)
Length of Visible Light 10h 45m
Length of Day
9h 47m
New Moon, 1% of the Moon is Illuminated
Jan 12
New Moon
Jan 18
First Quarter
Jan 26
Full
Feb 3
Last Quarter
Feb 10
New

Hourly Weather History & Observations

Time (CST) Temp. Dew Point Humidity Pressure Visibility Wind Dir Wind Speed Gust Speed Precip Events Conditions
12:56 AM 55.9 °F 54.0 °F 93% 29.95 in 10.0 mi South 9.2 mph - N/A   Clear
1:56 AM 54.9 °F 54.0 °F 97% 29.96 in 10.0 mi South 6.9 mph - N/A   Clear
2:37 AM 55.4 °F 55.4 °F 100% 29.96 in 10.0 mi South 6.9 mph - N/A   Mostly Cloudy
2:56 AM 54.9 °F 54.9 °F 100% 29.96 in 10.0 mi South 5.8 mph - N/A   Scattered Clouds
3:24 AM 55.4 °F 55.4 °F 100% 29.96 in 6.0 mi SSE 3.5 mph - N/A   Mostly Cloudy
3:56 AM 55.9 °F 55.9 °F 100% 29.96 in 8.0 mi Calm Calm - N/A   Overcast
4:04 AM 55.4 °F 55.4 °F 100% 29.96 in 9.0 mi SE 3.5 mph - N/A   Overcast
4:36 AM 55.4 °F 55.4 °F 100% 29.96 in 7.0 mi Calm Calm - N/A   Overcast
4:56 AM 55.9 °F 55.9 °F 100% 29.96 in 5.0 mi Calm Calm - N/A   Overcast
5:30 AM 57.2 °F 57.2 °F 100% 29.97 in 9.0 mi South 6.9 mph - N/A   Overcast
5:56 AM 56.8 °F 56.8 °F 100% 29.98 in 6.0 mi South 8.1 mph - N/A   Overcast
6:56 AM 59.0 °F 59.0 °F 100% 29.99 in 6.0 mi South 9.2 mph - N/A   Overcast
7:56 AM 57.9 °F 57.9 °F 100% 30.00 in 6.0 mi SSE 6.9 mph - N/A   Mostly Cloudy
8:56 AM 61.0 °F 61.0 °F 100% 30.00 in 7.0 mi SSE 6.9 mph - N/A   Overcast
9:56 AM 61.9 °F 61.9 °F 100% 30.00 in 7.0 mi SSE 6.9 mph - N/A   Overcast
10:56 AM 63.9 °F 63.0 °F 97% 29.98 in 6.0 mi Variable 3.5 mph - 0.00 in   Overcast
11:56 AM 66.9 °F 64.9 °F 93% 29.94 in 7.0 mi SSE 10.4 mph - N/A   Scattered Clouds
12:38 PM 68.0 °F 66.2 °F 94% 29.94 in 10.0 mi SSE 5.8 mph - 0.00 in Rain Light Rain
12:56 PM 66.9 °F 64.9 °F 93% 29.92 in 3.0 mi SE 5.8 mph - 0.00 in   Overcast
1:56 PM 68.9 °F 68.0 °F 97% 29.89 in 6.0 mi ESE 6.9 mph - 0.00 in   Overcast
2:56 PM 68.0 °F 66.9 °F 96% 29.86 in 3.0 mi SSE 8.1 mph - 0.00 in Rain Light Rain
3:28 PM 66.2 °F 66.2 °F 100% 29.86 in 3.0 mi SSE 13.8 mph - 0.03 in Rain Light Rain
3:56 PM 66.9 °F 65.8 °F 96% 29.84 in 7.0 mi SSE 15.0 mph - 0.07 in Rain Light Rain
4:56 PM 66.9 °F 64.9 °F 93% 29.82 in 5.0 mi SSE 11.5 mph 20.7 mph 0.02 in Rain Light Rain
5:56 PM 66.9 °F 64.9 °F 93% 29.82 in 7.0 mi South 15.0 mph - 0.00 in   Overcast
6:22 PM 66.2 °F 64.4 °F 94% 29.81 in 7.0 mi South 16.1 mph - N/A   Mostly Cloudy
6:56 PM 66.9 °F 63.9 °F 90% 29.80 in 10.0 mi South 19.6 mph - N/A   Mostly Cloudy
7:56 PM 66.9 °F 63.9 °F 90% 29.80 in 10.0 mi South 15.0 mph 23.0 mph N/A   Mostly Cloudy
8:56 PM 68.0 °F 64.9 °F 90% 29.78 in 10.0 mi South 15.0 mph 23.0 mph N/A   Overcast
9:56 PM 68.0 °F 63.9 °F 87% 29.75 in 10.0 mi South 15.0 mph 23.0 mph N/A   Mostly Cloudy
10:56 PM 68.0 °F 63.9 °F 87% 29.73 in 10.0 mi South 25.3 mph - N/A   Mostly Cloudy
11:56 PM 68.9 °F 63.0 °F 81% 29.72 in 10.0 mi South 24.2 mph - N/A   Mostly Cloudy